STARLINK-37530, 69131

Orbit data source: Space-Track

STARLINK-37530, 69131 is a payload satellite owned by SpaceX/Seattle (US) in SSO that was launched on Wed, 20 May 2026 UTC via an FALCON 9 launch vehicle from the Air Force Western Test Range (AFWTR). Payload-class satellites include a variety of spacecraft equipped with specific instruments for various scientific and technological missions. These include communications satellites like Starlink; space stations such as the ISS; scientific satellites like the Hubble; Earth observation satellites from companies like Planet Labs, Umbra, and HawkEye 360; GPS; miniature CubeSats for education and research; and military/defense satellites.

Loading next visibility...
Identifier
69131, 2026-110H
Orbit
SSO
Country
Flag of USUS
Related business
Manufacturer
SpaceX/Seattle
Mission
Operational spacecraft
Bus & Motor
STARLINK V2MO, Unknown motor
Mass
575 kg wet, ~530 kg dry
Launch date (UTC)
2026-05-20 (1 month ago)
Launch vehicle
FALCON 9
Launch site
Air Force Western Test Range (AFWTR)
Object type
Payload
Rocket body
Debris
Shape & HBR
Unknown shape, 14.5 m
Radar Cross Section
Large (>1 m²)

Expand to show TLE details & history
Last TLE update: 13 hours ago

TLE from 13 hours ago
0 STARLINK-37530
1 69131U 26110H   26171.28948161  .00018640  00000-0  57816-3 0  9995
2 69131  97.2854   7.6441 0001739  88.5901 271.5541 15.33451422  6089
Epoch: 2026-06-20T06:56Z
TLE epoch observation values (Epoch: 2026-06-20T06:56:51.211Z)
Latitude
Longitude
-5.07552°
Altitude
468.604 km
Speed
7.632 km/s
True Right ascension
00h 30m 34s
True Declination
0° 00' 00"
Sunlit
Object was in daylight at epoch
Visualization orbit readout
Latitude
Unknown
Longitude
Unknown
Altitude
Unknown
Speed
Unknown
Apparent Right ascension
Unknown
Apparent Declination
Unknown
Sunlit
N/A
Visualization observer readout
Local Sidereal Time
07:13:12
Azimuth
Unknown
Elevation
Unknown
Doppler factor
Unknown
Orbital elements
Apogee altitude
463.656 km
Perigee altitude
461.277 km
Semi-major axis
6,840.604 km
Eccentricity
0.00017
Inclination
97.2854°
RAAN
7.6441°
Arg. of periapsis
88.5901°
True anomaly
271.53418°
Mean anomaly
271.5541°
Eccentric anomaly
271.54414°
Mean motion
3.8362 °/min
Orbital period
93.84 mins
BSTAR
0.00057816
Loading maneuver chart data...
Computing Atmospheric mass density...
Loading historical data...
Loading historical data...
Loading historical data...
Loading historical data...
Loading historical data...
Loading historical data...
Loading historical data...

Documentation

Showing up to 5 results
|